Wind_Speed
8 8 8 9 9 10 11 12 14 15 16 17 18 19 19 20 19 19 18 17 17 16 15 13 11 10 9 9 9 9 11 13 15 17 18 20 22 22 24 26 27 26 26
9 8 9 9 9 10 11 12 13 15 16 17 17 18 19 19 19 19 18 17 16 15 15 14 11 10 8 7 7 7 9 11 12 15 17 19 20 22 23 25 27 26 26
10 8 9 9 9 10 11 12 13 15 15 16 17 18 19 19 19 19 17 17 16 15 14 13 12 9 7 6 6 5 7 9 11 13 14 17 19 21 23 24 26 27 27
11 9 9 9 9 10 10 12 13 14 15 15 17 18 18 19 19 18 17 16 16 15 14 13 12 9 7 7 6 5 5 7 9 12 13 15 17 19 22 23 25 26 26
11 10 9 9 9 10 10 11 12 13 14 15 16 17 18 18 18 18 17 16 16 15 14 13 11 9 7 6 5 5 5 6 8 10 12 14 16 17 20 22 24 25 25
11 10 10 9 9 10 10 11 12 12 13 14 15 16 17 18 18 18 17 16 15 15 14 13 11 9 8 6 5 5 5 5 7 9 11 13 15 17 18 20 22 23 24
11 11 10 10 10 10 10 11 11 12 12 14 15 16 17 17 18 18 17 16 15 14 14 13 11 10 9 7 6 5 5 5 5 7 9 11 13 16 17 19 21 22 23
11 11 11 10 10 10 10 11 11 12 12 13 14 15 16 17 18 17 17 16 15 14 14 13 12 11 10 9 7 6 5 5 5 6 7 9 11 14 16 18 20 22 23
12 12 11 11 11 10 10 11 11 11 12 12 13 15 16 16 17 17 17 16 15 15 14 13 13 12 11 10 8 7 6 6 6 6 7 8 10 12 14 17 18 20 22
13 13 12 12 11 11 11 11 11 11 11 12 13 14 15 16 16 16 16 16 15 15 14 14 14 13 11 10 9 8 7 7 7 7 8 9 10 11 13 16 17 19 20
14 14 13 13 12 11 11 11 11 11 11 11 12 13 14 15 16 16 16 16 16 15 14 14 14 14 12 11 10 9 9 8 8 8 8 9 10 11 13 15 17 18 19
15 15 14 14 13 12 12 11 11 11 11 11 12 12 13 15 15 16 16 15 15 15 14 14 14 14 13 12 11 10 10 9 9 8 8 9 10 11 13 15 16 18 19
16 16 15 15 14 14 13 12 11 11 11 11 11 12 13 14 15 15 15 15 16 15 14 14 14 14 13 13 12 11 11 10 10 9 10 10 11 11 12 15 17 18 19
17 17 17 16 16 15 14 13 12 12 11 11 12 12 13 14 14 14 15 16 16 15 15 15 14 14 14 13 13 12 12 11 10 10 10 10 11 11 11 13 15 17 18
19 18 18 18 17 16 16 15 14 13 12 12 12 12 13 13 13 14 15 15 16 16 15 15 15 15 14 14 14 13 13 12 11 11 11 11 10 11 11 12 13 15 16
20 20 19 19 19 18 17 16 16 15 14 13 13 13 13 13 14 14 15 15 16 16 16 16 15 15 15 15 15 14 14 13 12 12 11 11 11 11 11 11 12 13 14
22 21 21 21 20 20 19 18 17 17 16 15 14 14 14 14 14 14 15 15 15 16 16 16 16 16 16 15 15 15 15 14 14 12 12 11 11 11 11 11 12 12 14
22 23 22 22 22 21 20 20 19 18 18 17 16 16 15 15 15 15 15 15 15 16 16 16 16 16 16 16 16 16 15 15 14 13 12 12 11 11 11 11 11 12 12
23 23 24 24 23 23 22 21 21 20 20 19 18 17 17 16 16 16 15 16 16 16 16 16 16 16 16 16 16 16 16 16 15 14 13 13 12 12 11 12 12 13 13
24 24 25 25 25 25 25 24 23 22 21 21 20 19 19 18 17 17 17 16 17 17 17 16 16 16 16 16 16 17 17 16 16 15 14 14 13 13 13 13 13 14 14
26 26 26 26 26 26 26 26 25 24 23 23 22 22 21 20 19 19 18 18 18 18 17 17 17 17 17 17 17 17 17 17 17 16 16 15 15 14 14 14 15 15 15
29 29 28 28 28 28 28 28 27 26 26 25 24 24 23 22 21 21 20 20 19 19 18 18 18 18 18 18 18 18 19 19 18 18 17 16 16 16 15 15 16 16 16
31 32 31 30 30 30 30 30 29 29 28 27 27 26 25 24 23 23 22 21 21 20 20 20 19 19 19 19 20 20 20 20 19 19 18 18 17 17 17 17 17 18 18
34 34 34 33 33 32 32 32 32 31 30 29 29 28 27 26 26 25 24 23 23 22 22 21 21 20 20 20 20 21 21 20 20 20 19 19 19 18 18 19 19 19 19
37 37 36 36 35 35 34 34 34 33 32 32 31 30 29 28 27 27 26 25 24 24 23 23 22 22 21 21 21 21 21 21 21 20 20 20 20 20 20 20 21 21 22
40 40 39 39 38 37 36 36 35 35 34 33 33 32 31 30 29 28 28 27 26 25 25 24 24 23 23 23 23 23 22 22 22 22 22 22 22 22 22 22 22 23 24
Wind_Direction
280 287 298 303 312 319 325 329 330 333 336 337 337 338 340 341 341 340 339 339 338 337 336 333 327 315 303 289 274 260 247 240 235 231 228 225 223 223 220 219 219 219 218
277 283 291 298 307 315 322 326 329 332 335 337 339 340 341 342 343 343 342 341 340 340 340 338 333 327 316 303 285 259 245 238 235 233 230 225 223 220 219 219 218 220 220
276 276 286 294 304 312 319 324 329 332 335 337 339 341 343 344 345 345 344 343 343 343 343 343 340 336 328 315 299 274 248 240 236 233 230 225 222 220 220 218 218 219 220
274 276 283 292 302 310 317 324 328 332 335 337 340 343 344 345 346 346 345 345 346 346 346 346 346 342 333 322 307 285 264 248 241 234 230 227 222 221 222 219 217 219 221
270 272 280 291 300 308 315 321 327 331 335 339 342 344 346 347 348 348 348 348 349 349 349 349 350 350 342 329 312 293 281 259 245 237 233 231 226 224 223 221 220 220 222
267 268 276 287 297 306 314 319 325 330 335 340 343 344 346 348 350 350 350 351 351 352 353 354 354 354 351 339 319 306 293 277 256 244 236 232 230 226 225 224 222 223 225
265 267 274 283 293 303 311 317 322 327 333 339 342 344 346 348 350 350 351 352 353 354 356 357 355 353 353 348 333 320 308 289 272 253 242 235 233 229 228 226 224 226 228
265 267 271 279 288 298 307 313 318 324 330 335 339 342 345 348 350 352 353 353 353 354 355 357 356 352 350 348 344 334 323 304 286 270 256 241 236 232 230 229 228 228 229
266 266 270 276 284 293 301 309 314 321 327 332 337 341 344 347 350 353 355 355 355 354 354 355 355 355 354 350 345 341 330 317 298 282 270 257 245 238 234 233 232 232 233
265 266 270 273 280 288 294 303 310 317 325 330 335 340 343 346 349 352 354 355 357 357 356 355 356 356 354 352 348 341 333 318 304 291 280 266 255 248 243 238 237 236 238
266 266 269 271 276 282 288 296 304 311 319 326 332 338 342 345 347 349 351 354 355 355 356 356 357 357 354 351 348 345 340 329 315 301 287 273 263 255 249 246 244 242 243
266 265 267 268 272 277 283 290 298 304 311 319 326 333 338 342 345 347 349 351 353 353 353 353 355 356 356 352 347 344 341 334 323 311 298 283 271 260 252 249 248 248 248
266 264 263 265 268 273 278 283 290 297 305 313 320 326 332 337 342 345 347 349 350 350 351 351 351 352 353 352 349 345 341 335 326 317 306 294 283 274 262 253 250 250 251
264 263 261 262 265 269 273 277 282 288 297 306 313 320 326 332 336 341 344 346 348 348 348 348 348 348 348 348 345 343 341 337 331 323 315 306 295 286 274 262 257 253 252
264 262 259 259 262 265 269 273 275 281 289 298 306 313 320 326 330 335 339 342 345 346 346 347 346 345 344 343 341 339 338 334 330 325 318 313 305 297 285 273 265 260 257
265 262 259 257 259 261 264 268 271 274 280 289 297 305 311 318 323 327 332 337 339 341 342 343 344 344 342 341 340 338 337 333 328 323 317 313 307 301 291 282 273 266 263
264 262 259 257 257 259 261 264 267 270 274 281 289 296 303 308 314 319 325 329 333 336 337 338 339 339 339 339 339 337 335 332 329 322 316 311 308 302 295 286 279 272 269
266 262 260 258 257 258 260 262 264 266 270 275 281 288 294 301 306 311 317 322 326 330 333 333 334 334 335 336 336 335 333 331 327 323 319 313 306 302 298 291 286 281 279
266 262 260 258 257 258 259 261 262 265 268 271 276 281 287 292 298 303 309 314 319 322 326 328 329 330 331 332 333 333 333 330 327 324 318 313 307 301 297 294 290 286 281
266 264 260 258 257 257 258 260 261 263 265 268 272 276 281 285 290 296 301 307 312 316 318 321 324 326 327 328 330 330 330 329 328 325 320 314 308 301 298 295 291 288 286
266 264 261 258 257 257 258 259 261 262 264 266 269 272 276 280 284 289 294 299 304 309 312 314 317 319 321 323 325 326 326 326 325 323 318 313 308 304 300 295 291 288 285
265 263 261 259 258 258 258 258 260 261 263 264 266 269 272 275 279 283 288 292 297 302 305 308 310 313 315 317 320 321 322 323 322 321 317 312 306 303 300 297 294 291 287
265 262 260 259 258 258 258 258 259 260 261 263 264 266 269 272 275 278 283 287 291 295 299 302 304 307 309 311 315 316 317 317 318 318 316 312 306 302 299 297 294 293 289
265 263 261 259 258 258 257 257 258 259 260 261 262 264 266 269 271 275 278 282 286 290 294 297 299 302 304 307 311 313 315 315 314 314 314 311 307 302 298 296 294 294 292
264 263 261 259 258 257 257 257 257 258 259 260 261 262 264 267 269 272 275 278 281 285 289 292 295 297 300 302 305 309 310 312 312 312 311 310 307 304 300 297 294 293 292
263 262 261 259 257 256 256 255 256 257 258 259 259 261 262 264 267 269 272 275 278 282 285 288 291 293 296 298 301 304 306 307 309 309 309 308 306 303 301 298 296 294 293
Height
5840 5840 5840 5839 5838 5837 5836 5835 5833 5831 5828 5825 5822 5819 5815 5811 5807 5803 5799 5796 5792 5789 5786 5783 5781 5780 5779 5778 5778 5779 5781 5783 5785 5788 5791 5795 5798 5802 5806 5811 5815 5820 5824
5838 5838 5838 5838 5837 5836 5835 5833 5832 5829 5827 5824 5821 5817 5814 5810 5806 5802 5798 5795 5791 5788 5785 5782 5780 5778 5777 5777 5777 5777 5778 5780 5782 5785 5787 5791 5795 5798 5802 5806 5811 5816 5820
5836 5837 5837 5837 5836 5835 5833 5832 5830 5828 5826 5823 5820 5817 5813 5809 5805 5801 5797 5794 5790 5787 5784 5782 5779 5777 5776 5776 5775 5776 5777 5778 5780 5782 5784 5787 5790 5794 5799 5802 5807 5811 5815
5835 5835 5835 5835 5834 5833 5832 5831 5829 5827 5824 5822 5819 5816 5812 5809 5805 5801 5797 5793 5790 5787 5784 5781 5779 5777 5775 5775 5774 5774 5775 5776 5778 5779 5781 5784 5787 5791 5795 5798 5802 5806 5811
5833 5833 5833 5833 5833 5832 5831 5829 5828 5826 5823 5821 5818 5815 5811 5808 5804 5800 5797 5793 5790 5787 5784 5781 5778 5776 5775 5774 5773 5773 5774 5774 5775 5777 5778 5781 5784 5787 5790 5794 5798 5802 5806
5831 5832 5832 5831 5831 5830 5829 5828 5826 5824 5822 5820 5817 5814 5811 5808 5804 5800 5796 5793 5790 5787 5784 5781 5778 5776 5775 5773 5773 5772 5772 5773 5774 5775 5776 5778 5781 5783 5787 5790 5794 5798 5802
5830 5830 5830 5830 5829 5828 5827 5826 5825 5823 5821 5819 5816 5814 5811 5807 5804 5800 5797 5793 5790 5787 5784 5781 5779 5777 5775 5773 5772 5771 5771 5772 5772 5773 5774 5776 5778 5780 5783 5787 5790 5794 5798
5828 5828 5828 5828 5827 5827 5826 5825 5823 5822 5820 5818 5816 5813 5810 5807 5804 5800 5796 5793 5790 5787 5784 5782 5779 5777 5775 5773 5772 5771 5771 5771 5771 5771 5772 5773 5775 5777 5780 5783 5786 5790 5793
5825 5826 5826 5826 5826 5825 5824 5823 5822 5820 5819 5817 5815 5812 5809 5806 5803 5800 5796 5793 5790 5787 5784 5782 5779 5777 5775 5773 5772 5771 5770 5770 5770 5770 5770 5771 5772 5774 5776 5779 5782 5785 5788
5823 5823 5823 5823 5823 5823 5822 5822 5820 5819 5817 5815 5813 5811 5809 5806 5803 5800 5796 5793 5790 5787 5784 5782 5779 5777 5775 5773 5771 5770 5769 5769 5769 5769 5769 5769 5770 5771 5773 5775 5778 5780 5783
5820 5821 5821 5821 5821 5821 5820 5819 5819 5817 5816 5814 5812 5810 5808 5805 5802 5799 5796 5793 5790 5787 5785 5782 5779 5777 5775 5773 5771 5770 5768 5768 5767 5766 5766 5766 5767 5768 5770 5771 5773 5776 5778
5817 5817 5818 5818 5818 5818 5818 5817 5816 5815 5814 5813 5811 5809 5807 5804 5801 5799 5796 5793 5790 5787 5785 5782 5779 5777 5775 5773 5771 5769 5768 5766 5765 5764 5764 5763 5764 5764 5766 5767 5769 5771 5773
5813 5814 5814 5815 5815 5815 5815 5814 5814 5813 5812 5811 5809 5807 5805 5803 5800 5798 5795 5792 5789 5786 5784 5782 5779 5777 5774 5772 5770 5768 5767 5765 5764 5762 5761 5761 5760 5760 5761 5762 5764 5766 5768
5809 5810 5810 5811 5811 5812 5812 5811 5811 5811 5810 5809 5807 5806 5804 5802 5799 5797 5794 5791 5788 5786 5783 5781 5778 5776 5774 5771 5769 5767 5765 5764 5762 5760 5759 5758 5757 5757 5757 5758 5759 5761 5762
5805 5805 5806 5806 5807 5808 5808 5808 5808 5807 5807 5806 5805 5803 5802 5800 5798 5795 5793 5790 5787 5785 5782 5780 5777 5775 5773 5770 5768 5766 5764 5762 5760 5759 5757 5756 5755 5754 5754 5754 5755 5756 5758
5800 5800 5801 5802 5802 5803 5804 5804 5804 5804 5804 5803 5802 5801 5799 5798 5796 5794 5791 5789 5786 5784 5781 5778 5776 5774 5771 5769 5766 5764 5762 5760 5758 5757 5755 5754 5753 5752 5751 5751 5751 5752 5753
5795 5795 5796 5797 5798 5798 5799 5799 5799 5800 5799 5799 5798 5797 5796 5795 5793 5791 5789 5787 5785 5782 5780 5777 5775 5772 5770 5767 5764 5762 5760 5758 5756 5754 5753 5752 5751 5749 5748 5748 5748 5749 5749
5790 5790 5791 5791 5792 5793 5794 5794 5794 5795 5795 5795 5794 5794 5793 5791 5790 5788 5787 5785 5782 5780 5778 5775 5773 5770 5768 5765 5763 5760 5758 5756 5754 5752 5750 5749 5748 5747 5746 5745 5745 5745 5745
5784 5784 5785 5786 5786 5787 5788 5789 5789 5789 5790 5790 5789 5789 5788 5787 5786 5785 5783 5781 5779 5777 5775 5773 5771 5768 5766 5763 5761 5758 5756 5754 5751 5749 5748 5746 5745 5744 5743 5742 5742 5742 5742
5778 5778 5779 5779 5780 5781 5782 5782 5783 5784 5784 5784 5784 5784 5783 5783 5782 5781 5779 5778 5776 5774 5772 5770 5768 5766 5763 5761 5758 5756 5754 5751 5749 5747 5745 5743 5742 5741 5740 5739 5738 5738 5738
5771 5771 5772 5773 5773 5774 5775 5775 5776 5777 5777 5778 5778 5778 5778 5777 5777 5776 5775 5773 5772 5770 5768 5767 5765 5762 5760 5758 5756 5753 5751 5748 5746 5744 5742 5740 5738 5737 5736 5735 5734 5734 5733
5764 5764 5764 5765 5766 5766 5767 5768 5769 5770 5770 5771 5771 5771 5771 5771 5771 5770 5769 5768 5767 5766 5764 5762 5761 5759 5756 5754 5752 5749 5747 5745 5742 5740 5738 5736 5734 5733 5732 5731 5730 5729 5728
5755 5755 5756 5757 5757 5758 5759 5760 5761 5761 5762 5763 5763 5764 5764 5764 5764 5764 5763 5763 5762 5760 5759 5757 5756 5754 5752 5750 5748 5745 5743 5740 5738 5736 5734 5732 5730 5729 5728 5726 5725 5724 5723
5745 5746 5746 5747 5748 5749 5750 5751 5752 5753 5754 5755 5755 5756 5756 5757 5757 5757 5757 5756 5755 5754 5753 5752 5750 5749 5747 5745 5743 5740 5738 5736 5733 5731 5729 5727 5726 5724 5723 5721 5720 5719 5717
5734 5735 5736 5737 5738 5739 5740 5741 5742 5743 5744 5745 5746 5747 5748 5749 5749 5749 5749 5749 5748 5747 5747 5745 5744 5743 5741 5739 5737 5735 5733 5731 5728 5726 5724 5722 5720 5719 5717 5715 5714 5713 5711
5721 5722 5723 5725 5726 5728 5729 5731 5732 5733 5734 5736 5737 5738 5739 5740 5741 5741 5741 5741 5741 5740 5739 5738 5737 5736 5735 5733 5731 5729 5727 5725 5723 5721 5719 5717 5714 5712 5711 5709 5707 5706 5704